Tolhuin, Argentina

9:16 PM ART on September 21, 2014 (GMT -0300)
Ushuaia International Malvine Island | Change Station
CLOSE
Current Station
Airport
Location: Ushuaia,
Elevation: 69 ft
Nearby Weather Stations

Elev 69 ft 54.84 °S, 68.31 °W | Updated 16 minutes ago

Overcast
Overcast
41 °F
Feels Like 33 °F
N
15
Wind Variable Wind from East

Today
High -- | Low -- °F
--% Chance of Precip.
Yesterday
High -- | Low -- °F
Precip. -- in
7:20 AM 7:25 PM
Waning Crescent, 5% visible
Pressure 29.06 in
Visibility 6.2 miles
Clouds Scattered Clouds 3000 ft
Mostly Cloudy 3500 ft
Overcast 4500 ft
Windchill 33 °F
Dew Point 34 °F
Humidity 76%
Rainfall 0.00 in
Snow Depth Not available.
UV 0 out of 12
Pollen Not available.
Air Quality Not available.
Flu Activity Not available.
METAR SAWH 220000Z 09013KT 9999 VCSH SCT030 BKN035 OVC045 05/01 Q0984 REDZ

More Conditions Fewer Conditions

Pressure 29.06 in
Visibility 6.2 miles
Clouds Scattered Clouds 3000 ft
Mostly Cloudy 3500 ft
Overcast 4500 ft
Windchill 33 °F
Dew Point 34 °F
Humidity 76%
Rainfall 0.00 in
Snow Depth Not available.
UV 0 out of 12
Pollen Not available.
Air Quality Not available.
Flu Activity Not available.
METAR SAWH 220000Z 09013KT 9999 VCSH SCT030 BKN035 OVC045 05/01 Q0984 REDZ

More Conditions Fewer Conditions

10-Day Weather Forecast

Almanac

Astronomy

Sep. 21, 2014 Rise Set
Actual Time 7:20 AM ART 7:25 PM ART
Civil Twilight 6:44 AM ART 8:01 PM ART
Nautical Twilight 6:01 AM ART 8:43 PM ART
Astronomical Twilight 5:17 AM ART 9:28 PM ART
Moon 6:08 AM ART (9/21) 4:55 PM ART (9/21)
Length of Visible Light 13h 16m
Length of Day
12h 05m
Tomorrow will be 4m 24s longer.
Waning Crescent, 5% of the Moon is Illuminated
Today
Waning Crescent
Sep 24
New
Oct 1
First Quarter
Oct 8
Full
Oct 15
Last Quarter

Today's Extremes

Country Highs Country Lows

Community

WunderPhotos

Upload Photos

1,755,310 photos uploaded!

WunderBlogs® & News

Nearby

Snow Depth

Not available.

Earthquake Activity

City Distance Mag. Time & Date
No recent earthquake activity has been reported nearby.
Minimum magnitude displayed is 2.5.

Coastal Water Temperatures

Place Temperature
No Stations Reporting

Nearby Weather Stations